Погода в Бендер-Аббасе

Иран     27°11′36″N   56°18′19″E
темп.,
°C
ветер,
м/с
пор.,
м/с
влажн.,
%
обл.,
%
осадки,
мм/ч
давл.,
гПа
погр.,
м
4 августа, ср
ср401:30+32вюв34695 0.0 1001228
04:30+31вюв11740 0.0 1001198
07:30+32всв22650 0.0 1002207
10:30+35ююв32520 0.0 1002447
13:30+36ююв53490 0.0 1001456
16:30+36ю44495 0.0 999361
19:30+33ююв00593 0.0 1000140
22:30+33юв22590 0.0 100185
5 августа, чт
чт501:30+33всв115610 0.0 100012
04:30+32в11610 0.0 99913
07:30+33ссв12540 0.0 100082
10:30+37ю21360 0.0 1000466
13:30+39ю33290 0.0 999656
16:30+40ю44280 0.0 997558
19:30+38юз46310 0.0 997221
22:30+36ююз22420 0.0 99922
6 августа, пт
пт601:30+34всв22510 0.0 99929
04:30+34всв22460 0.0 99811
07:30+36св223419 0.0 99932
10:30+39ююз11265 0.0 999435
13:30+41ю22200 0.0 998951
16:30+42ююз55193 0.0 996732
19:30+40зюз57220 0.0 996113
22:30+37юз11310 0.0 99811
7 августа, сб
сб701:30+35всв34423 0.0 99853
04:30+34ссв22380 0.0 99811
07:30+36св22290 0.0 99918
10:30+40юв22210 0.0 1000530
13:30+40ю43190 0.0 999651
16:30+41ю4519100 0.0 997513
19:30+40юз332271 0.0 99742
22:30+34в33515 0.0 999101
8 августа, вс
вс801:30+34всв454237 0.0 100092
04:30+33всв33480 0.0 100035
07:30+35св22370 0.0 100167
10:30+39вюв22220 0.0 1002535
13:30+40ю33190 0.0 1000863
16:30+40ю45210 0.0 999422
19:30+38з11270 0.0 99813
22:30+37всв23280 0.0 99916